Location: Góry Miechowskie
(50.3599°N, 20.1803°E)
Time: 08:57:31
(UTC+00:00)

A-11 Canister half - Pass Details

Date: 13 September 2024
Orbit: 1515 x 1684 km, 47.2° (Epoch: 09 October)

Event Time Altitude Azimuth Distance (km) Brightness Sun altitude
Rises 15:10:27 0° 168° (SSE) 4,733 11.6 16.0°
Reaches altitude 10° 15:17:06 10° 136° (SE) 3,714 10.8 15.0°
Maximum altitude 15:19:02 11° 123° (ESE) 3,644 10.6 14.7°
Drops below altitude 10° 15:20:58 10° 111° (ESE) 3,699 10.6 14.4°
Sets 15:27:29 0° 78° (ENE) 4,666 10.9 13.4°
